SCP
0 1 1 0 0 0 0 0 0 0 0 0 0 0 0 0 0 0 0 0 0 0 0 0 0 0 0 0 0 0 0 0 0 0 0 0 0 0 0 0 0 0 0
1 1 1 1 0 0 0 0 0 0 0 0 0 0 0 0 0 0 0 0 0 0 0 0 0 0 0 0 0 0 0 0 0 0 0 0 0 0 0 0 0 0 0
1 1 1 1 1 1 0 0 0 0 0 0 0 0 0 0 0 0 0 0 0 0 0 0 0 0 0 0 0 0 0 0 0 0 0 0 0 0 0 0 0 0 0
1 1 1 1 1 1 1 0 0 0 0 0 0 0 0 0 0 0 0 0 0 0 0 0 0 0 0 0 0 0 0 0 0 0 0 0 0 0 0 0 0 0 0
0 0 1 1 1 1 1 0 0 0 0 0 0 0 0 0 0 0 0 0 0 0 0 0 0 0 0 0 0 0 0 0 0 0 0 0 0 0 0 0 0 0 0
0 0 1 1 1 1 1 0 0 0 0 0 0 0 0 0 0 0 0 0 0 0 0 0 0 0 0 0 0 0 0 0 0 0 0 0 0 0 0 0 0 0 0
1 1 1 1 1 1 1 0 0 0 0 0 0 0 0 0 0 0 0 0 0 0 0 0 0 0 0 0 0 0 0 0 0 0 0 0 0 0 0 0 0 0 0
0 1 1 1 0 0 0 0 0 0 0 0 0 0 0 0 0 0 0 0 0 0 0 0 0 0 0 0 0 0 0 0 0 0 0 0 0 0 0 0 0 0 0
0 0 0 0 0 0 0 0 0 0 0 0 0 0 0 0 0 0 0 0 0 0 0 0 0 0 0 0 0 0 0 0 0 0 0 0 0 0 0 0 0 0 0
0 0 0 0 0 0 0 0 0 0 0 0 0 0 0 0 0 0 0 0 0 0 0 0 0 0 0 0 0 0 0 0 0 0 0 0 0 0 0 0 0 0 0
0 0 0 0 0 0 0 0 0 0 0 0 0 0 0 0 0 0 0 0 0 0 0 0 0 0 0 0 0 0 0 0 0 0 0 0 0 0 0 0 0 0 0
0 0 0 0 0 0 0 0 0 0 0 0 0 0 0 0 0 0 0 0 0 0 0 0 0 0 0 0 0 0 0 0 0 0 0 0 0 0 0 0 0 0 0
0 0 0 0 0 0 0 0 0 0 0 0 0 0 0 0 0 0 0 0 0 0 0 0 0 0 0 0 0 0 0 0 0 0 0 0 0 0 0 0 0 0 0
0 0 0 0 0 0 0 0 0 0 0 0 0 0 0 0 0 0 0 0 0 0 0 0 0 0 0 0 0 0 0 0 0 0 0 0 0 0 0 0 0 0 0
0 0 0 0 0 0 0 0 0 0 0 0 0 0 0 0 0 0 0 0 0 0 0 0 0 0 0 0 0 0 0 0 0 0 0 0 0 0 0 0 0 0 0
0 0 0 0 0 0 0 0 0 0 0 0 0 0 0 0 0 0 0 0 0 0 0 0 0 0 0 0 0 0 0 0 0 0 0 0 0 0 0 0 0 0 0
0 0 0 0 0 0 0 0 0 0 0 0 0 0 0 0 0 0 0 0 0 0 0 0 0 0 0 0 0 0 0 0 0 0 0 0 0 0 0 0 0 0 0
0 0 0 0 0 0 0 0 0 0 0 0 0 0 0 0 0 0 0 0 0 0 0 0 0 0 0 0 0 0 0 0 0 0 0 0 0 0 0 0 0 0 0
0 0 0 0 0 0 0 0 0 0 0 0 0 0 0 0 0 0 0 0 0 0 0 0 0 0 0 0 0 0 0 0 0 0 0 0 0 0 0 0 0 0 0
0 0 0 0 0 0 0 0 0 0 0 0 0 0 0 0 0 0 0 0 0 0 0 0 0 0 0 0 0 0 0 0 0 0 0 0 0 0 0 0 0 0 0
0 0 0 0 0 0 0 0 0 0 0 0 0 0 0 0 0 0 0 0 0 0 0 0 0 0 0 0 0 0 0 0 0 0 0 0 0 0 0 0 0 0 0
0 0 0 0 0 0 0 0 0 0 0 0 0 0 0 0 0 0 0 0 0 0 0 0 0 0 0 0 0 0 0 0 0 0 0 0 0 0 0 0 0 0 0
0 0 0 0 0 0 0 0 0 0 0 0 0 0 0 0 0 0 0 0 0 0 0 0 0 0 0 0 0 0 0 0 0 0 0 0 0 0 0 0 0 0 0
0 0 0 0 0 0 0 0 0 0 0 0 0 0 0 0 0 0 0 0 0 0 0 0 0 0 0 0 0 0 0 0 0 -0 0 0 0 0 0 0 0 0 0
0 0 0 0 0 0 0 0 0 0 0 0 0 0 0 0 0 0 0 0 0 0 0 0 0 0 0 0 0 0 0 0 0 0 -0 0 0 0 0 0 0 0 0
0 0 0 0 0 0 0 0 0 0 0 0 0 0 0 0 0 0 0 0 0 0 0 0 0 0 0 0 0 0 0 0 0 0 0 0 0 0 0 0 0 0 0
Wind_Speed
8 11 13 12 11 11 10 10 10 9 9 9 9 9 9 9 9 9 9 9 9 9 10 10 10 11 11 11 12 12 12 12 12 12 11 11 11 11 11 10 10 9 13
10 11 13 12 11 11 10 10 9 9 9 9 9 9 9 9 9 9 9 9 9 9 10 10 10 10 10 11 11 11 11 10 9 9 9 8 9 11 12 13 12 8 12
10 11 12 12 11 11 10 10 10 9 9 9 9 9 9 9 9 9 8 9 9 9 9 9 9 9 9 10 10 9 9 7 6 5 5 4 7 11 12 12 12 12 12
9 10 10 12 11 11 10 10 9 9 9 9 9 9 9 9 9 9 8 9 9 9 9 9 9 9 9 9 9 8 6 5 3 2 2 5 6 11 12 12 12 12 12
8 9 11 12 11 11 10 10 9 9 9 9 9 9 9 9 9 9 9 8 9 9 9 9 9 9 9 9 8 7 5 3 4 4 4 6 5 10 12 12 12 12 12
8 9 10 12 11 10 10 9 9 9 9 9 9 8 9 9 9 8 8 8 8 8 8 8 9 9 9 8 7 6 4 3 4 3 4 5 5 10 12 11 11 11 11
8 8 10 12 11 10 10 9 9 9 9 9 8 8 9 9 8 8 8 8 8 8 9 9 9 9 9 8 6 5 4 4 3 3 5 5 6 12 11 11 11 11 11
8 8 9 11 11 10 9 9 9 9 9 9 8 8 8 8 8 8 7 7 7 8 9 9 9 9 8 7 6 5 4 4 3 4 5 5 9 11 11 11 10 10 10
7 7 7 7 8 9 9 8 8 9 8 8 8 8 8 8 8 8 7 7 7 7 8 8 8 8 7 7 5 5 4 4 3 3 6 5 9 10 10 10 9 9 9
5 6 6 5 6 6 6 8 8 8 8 8 8 7 7 7 7 7 6 6 6 7 7 8 8 8 7 6 4 3 3 3 2 4 4 5 9 9 9 9 9 9 9
4 5 5 5 5 5 5 7 7 7 7 7 6 7 6 4 4 4 6 6 6 7 7 7 7 7 6 4 2 1 2 1 3 4 3 8 9 9 9 8 8 8 8
4 4 4 4 4 4 4 4 4 4 4 4 4 4 3 3 3 4 6 6 6 6 6 7 6 5 3 2 1 1 1 2 3 3 4 8 9 9 8 8 8 8 7
5 4 4 4 4 4 3 3 2 2 3 3 4 4 3 3 3 3 2 3 4 4 3 4 3 2 2 1 1 1 2 2 2 3 4 8 8 8 7 8 7 7 7
4 4 4 4 4 4 3 3 2 2 2 2 2 3 3 2 2 2 2 2 2 2 2 2 2 2 2 2 2 2 2 2 3 3 4 7 7 7 7 7 7 7 7
5 4 4 4 4 3 3 2 3 3 2 2 2 2 3 2 3 2 2 2 2 2 2 1 1 2 2 2 2 2 3 3 4 4 3 7 7 7 7 6 6 6 6
5 5 4 4 4 4 3 3 3 3 3 3 2 3 3 2 3 3 2 2 2 2 1 1 2 2 1 2 2 3 3 3 3 4 4 4 6 6 6 6 5 5 5
4 5 5 5 5 4 4 3 3 3 3 3 3 3 3 3 3 3 2 2 1 2 2 2 1 2 2 2 3 3 2 3 3 3 3 3 3 5 6 6 5 5 4
5 5 5 5 5 5 4 3 2 3 3 3 3 3 3 3 3 3 2 2 2 2 2 2 1 2 2 2 2 2 2 2 2 3 3 2 2 2 3 5 4 4 3
5 5 5 4 5 4 4 3 3 3 3 2 3 3 3 3 4 3 3 2 2 2 1 2 2 2 2 3 2 2 2 2 1 2 2 3 2 3 2 3 4 3 3
4 5 5 5 5 5 4 3 2 3 2 2 2 3 4 3 4 3 3 3 2 2 2 2 2 2 2 2 3 3 2 1 1 2 2 2 2 2 2 2 2 2 2
4 4 5 6 5 4 4 4 3 3 2 2 2 3 3 3 3 3 3 3 2 2 2 3 2 3 3 2 3 2 2 2 2 1 1 1 2 2 2 2 1 1 1
5 5 5 5 6 5 4 4 3 3 3 2 2 3 4 3 3 3 4 3 3 2 2 2 3 2 2 2 2 2 1 1 1 0 1 1 1 1 1 1 1 1 1
4 5 5 5 5 6 5 4 3 3 2 2 3 3 3 4 3 3 3 3 3 3 3 3 3 3 3 2 2 3 3 2 1 0 1 1 1 1 0 1 0 0 1
4 3 4 5 5 5 6 5 6 5 4 4 4 3 3 4 3 4 4 3 3 3 3 3 3 2 4 3 1 1 2 2 3 1 1 1 1 1 0 0 0 0 0
3 4 3 4 4 5 5 6 6 5 4 3 4 4 3 3 3 4 4 4 3 3 3 3 3 3 3 3 2 1 1 1 1 2 2 1 1 1 1 0 1 1 1
2 3 4 4 4 4 5 5 6 6 5 6 5 5 4 3 3 4 4 4 4 3 4 3 3 3 3 3 2 2 2 2 2 2 2 2 2 2 1 1 1 1 1
Wind_Direction
113 128 136 133 130 127 124 123 120 118 115 117 116 116 114 112 108 106 105 103 100 97 95 92 89 88 86 84 81 79 76 77 79 80 77 74 74 74 71 67 71 73 74
121 129 135 132 129 127 124 122 119 116 116 116 115 116 117 116 113 112 109 105 103 100 97 94 92 91 90 90 87 83 81 82 86 88 86 77 75 75 71 67 72 77 77
120 128 134 130 128 126 123 122 121 120 119 118 118 117 115 115 114 112 110 107 105 101 98 96 94 92 91 92 90 88 85 84 83 96 103 96 86 83 80 76 75 77 77
121 127 130 128 128 127 124 122 123 124 123 121 120 118 115 112 109 106 104 106 104 101 97 96 95 92 90 92 91 90 87 75 47 47 91 96 90 89 85 79 75 76 75
116 121 125 127 126 127 125 124 122 122 123 123 120 119 116 113 109 104 98 99 101 100 97 94 95 94 91 94 93 89 80 55 38 36 68 80 81 91 86 80 76 75 74
113 115 126 128 127 125 123 124 124 124 125 123 121 120 117 115 111 106 99 94 97 100 100 99 99 98 95 94 92 84 65 50 38 45 71 81 85 91 87 83 79 76 75
112 115 129 130 128 126 125 126 126 125 126 125 124 123 120 117 114 108 102 98 99 101 103 104 102 100 97 92 89 78 57 51 46 55 70 77 89 94 88 84 81 78 76
111 117 128 132 130 128 127 126 125 126 126 125 125 124 122 119 116 110 105 104 103 105 108 104 103 102 99 95 85 69 53 47 47 76 78 79 94 95 90 86 83 79 77
112 118 128 136 135 133 130 129 128 128 126 125 124 119 115 116 115 113 109 108 109 109 111 109 109 107 106 99 86 66 51 46 20 58 84 82 95 95 93 89 86 84 80
119 122 129 135 134 135 135 135 132 131 132 130 127 122 119 120 119 118 114 112 114 111 114 115 115 112 106 102 93 68 52 34 48 63 74 91 96 95 95 92 87 84 82
126 125 127 129 130 133 141 143 139 136 139 139 136 138 135 133 126 117 116 111 116 117 119 120 121 120 115 108 110 80 51 63 79 75 76 93 98 97 96 94 89 86 85
148 137 130 132 133 136 140 136 146 145 147 149 144 146 143 123 121 121 120 126 130 130 130 132 133 137 138 144 141 119 67 80 84 83 85 96 102 101 97 97 92 89 88
154 147 136 136 134 134 131 139 141 139 147 152 155 153 137 126 126 124 129 137 140 140 137 140 147 159 146 133 128 111 69 67 81 86 91 100 106 106 102 99 95 92 90
152 156 146 139 135 134 132 136 134 127 130 134 141 142 135 131 131 131 130 135 139 135 137 152 158 147 143 133 120 111 93 82 79 85 90 98 105 109 107 99 96 97 92
159 159 151 142 143 142 135 142 133 130 134 134 136 142 131 131 133 128 124 123 125 128 144 150 143 141 137 109 102 105 98 87 90 89 88 90 98 105 108 102 96 97 95
164 159 151 146 146 147 146 146 137 134 133 126 128 137 134 129 127 128 123 121 125 126 125 128 123 129 122 105 101 97 94 91 97 110 112 96 91 101 106 103 96 95 91
163 155 157 157 153 154 151 153 143 141 137 133 135 134 130 124 128 130 128 130 136 130 124 106 104 98 100 94 92 86 84 82 88 103 112 115 103 95 105 106 99 95 94
162 158 161 163 158 159 152 152 143 140 136 137 140 141 145 140 135 130 132 142 146 132 127 125 123 110 102 97 89 77 75 79 82 95 100 112 119 113 103 105 104 100 100
167 163 160 154 157 160 153 149 143 140 137 136 137 143 149 146 145 137 139 152 148 130 130 146 117 123 118 109 107 89 68 66 74 89 103 103 107 114 112 104 101 101 98
163 161 162 158 158 159 150 142 135 131 136 134 140 144 146 151 153 143 146 154 147 136 139 139 135 121 117 121 107 85 70 58 58 71 88 96 100 112 111 113 111 101 102
160 163 166 164 164 159 160 160 158 160 158 152 150 147 143 152 157 150 151 153 156 154 158 149 138 132 126 114 100 81 40 50 73 68 68 93 96 103 109 117 121 115 125
173 175 172 171 168 167 168 166 160 154 159 158 159 152 153 155 163 158 154 160 156 150 152 148 137 135 142 133 130 128 121 7 334 65 82 106 113 93 109 116 127 143 130
175 182 182 176 170 169 163 154 149 141 141 153 161 164 166 161 166 158 157 155 155 155 162 160 158 146 161 173 147 145 152 188 174 279 229 152 145 130 101 95 137 166 139
183 180 179 175 171 173 169 168 171 172 171 171 165 166 168 160 162 162 158 159 159 157 166 173 162 155 155 174 189 155 142 141 143 168 276 251 184 169 180 150 99 328 100
174 170 172 169 173 177 178 175 175 181 173 154 157 161 165 164 168 169 160 164 166 164 168 170 161 165 163 170 173 163 118 72 121 152 203 244 279 259 227 216 207 200 185
153 159 163 165 174 178 179 178 181 183 173 164 165 167 171 171 171 172 165 169 170 168 169 173 175 171 169 167 167 158 156 161 185 163 172 193 224 246 249 250 237 211 189